GW3941 Weather Reports


time (UTC)temp
C
wind
direction
speed
KPH
gust
KPH
rain 1hr
cm
rain 24hr
cm
rain mn
cm
humidity
%
barometer
mb
20260504002039 11 303 1.6 6.4 0.00 0.00 0.00 53 1012.3
20260504001603 11 303 1.6 6.4 0.00 0.00 0.00 52 1012.3
20260504001039 11 286 1.6 4.8 0.00 0.00 0.00 52 1012.2
20260504000540 11 286 1.6 4.8 0.00 0.00 0.00 51 1012.2
20260504000041 11 286 1.6 4.8 0.00 0.00 0.00 50 1012.2
20260503235538 12 286 1.6 4.8 0.00 0.00 0.00 50 1012.1
20260503235038 12 286 1.6 4.8 0.00 0.00 0.00 49 1012.1
20260503234638 12 286 1.6 4.8 0.00 0.00 0.00 49 1012.1
20260503234039 12 286 1.6 4.8 0.00 0.00 0.00 49 1012.0
20260503233536 12 286 3.2 6.4 0.00 0.00 0.00 48 1012.0
20260503233041 12 286 1.6 12.9 0.00 0.00 0.00 49 1011.9
20260503232536 12 287 4.8 12.9 0.00 0.00 0.00 48 1011.9
20260503232038 12 285 3.2 12.9 0.00 0.00 0.00 47 1011.9
20260503231537 13 266 3.2 14.5 0.00 0.00 0.00 46 1011.9
20260503231037 13 268 3.2 14.5 0.00 0.00 0.00 47 1011.8
20260503230537 13 282 4.8 17.7 0.00 0.00 0.00 46 1011.9
20260503230043 13 283 6.4 17.7 0.00 0.00 0.00 46 1011.7
20260503225536 13 261 3.2 11.3 0.00 0.00 0.00 45 1011.7
20260503225036 13 300 3.2 16.1 0.00 0.00 0.00 45 1011.7
20260503224536 13 261 6.4 25.7 0.00 0.00 0.00 45 1011.6
20260503224036 14 327 6.4 25.7 0.00 0.00 0.00 44 1011.5
20260503223535 14 275 3.2 14.5 0.00 0.00 0.00 44 1011.6
20260503223036 15 346 4.8 19.3 0.00 0.00 0.00 44 1011.5
20260503222535 15 202 4.8 19.3 0.00 0.00 0.00 44 1011.5
20260503222036 15 152 3.2 12.9 0.00 0.00 0.00 42 1011.5
20260503221535 15 225 4.8 12.9 0.00 0.00 0.00 42 1011.5
20260503221035 15 247 4.8 12.9 0.00 0.00 0.00 43 1011.6
20260503220535 15 288 3.2 12.9 0.00 0.00 0.00 44 1011.5
20260503220043 15 250 3.2 12.9 0.00 0.00 0.00 43 1011.5
20260503215534 15 307 3.2 12.9 0.00 0.00 0.00 43 1011.5
20260503215035 15 298 3.2 19.3 0.00 0.00 0.00 43 1011.5
20260503214534 15 340 4.8 17.7 0.00 0.00 0.00 42 1011.4
20260503214038 15 88 1.6 14.5 0.00 0.00 0.00 43 1011.5
20260503213533 15 325 3.2 14.5 0.00 0.00 0.00 42 1011.5
20260503213033 15 292 4.8 12.9 0.00 0.00 0.00 42 1011.5
20260503212536 15 260 3.2 11.3 0.00 0.00 0.00 43 1011.4
20260503212035 15 313 3.2 12.9 0.00 0.00 0.00 42 1011.4
20260503211534 15 212 3.2 17.7 0.00 0.00 0.00 45 1011.5
20260503211033 15 304 4.8 17.7 0.00 0.00 0.00 44 1011.5
20260503210533 15 254 4.8 12.9 0.00 0.00 0.00 42 1011.5
20260503210032 15 190 1.6 12.9 0.00 0.00 0.00 43 1011.5
20260503205535 15 320 3.2 17.7 0.00 0.00 0.00 43 1011.4
20260503205032 15 326 3.2 20.9 0.00 0.00 0.00 43 1011.4
20260503204532 15 276 6.4 20.9 0.00 0.00 0.00 42 1011.4
20260503204032 15 340 6.4 14.5 0.00 0.00 0.00 42 1011.3
20260503203531 15 341 3.2 14.5 0.00 0.00 0.00 44 1011.4
20260503203046 15 295 6.4 14.5 0.00 0.00 0.00 43 1011.5
20260503202530 15 346 4.8 16.1 0.00 0.00 0.00 43 1011.6
20260503202030 15 277 4.8 17.7 0.00 0.00 0.00 43 1011.6
20260503201533 15 286 4.8 17.7 0.00 0.00 0.00 43 1011.6
20260503201032 15 279 8.0 17.7 0.00 0.00 0.00 42 1011.7
20260503200531 15 326 4.8 29.0 0.00 0.00 0.00 43 1011.7
20260503200030 15 333 8.0 20.9 0.00 0.00 0.00 44 1011.7
20260503195530 15 253 6.4 20.9 0.00 0.00 0.00 43 1011.8
20260503195029 15 232 6.4 30.6 0.00 0.00 0.00 44 1011.8
20260503194538 15 256 11.3 30.6 0.00 0.00 0.00 42 1011.7
20260503194029 15 286 6.4 19.3 0.00 0.00 0.00 44 1011.7
20260503193530 15 329 4.8 19.3 0.00 0.00 0.00 42 1011.8
20260503193028 15 282 4.8 12.9 0.00 0.00 0.00 43 1011.9
20260503192527 15 304 3.2 19.3 0.00 0.00 0.00 44 1011.9
20260503192027 14 337 8.0 17.7 0.00 0.00 0.00 41 1011.9
20260503191526 14 319 6.4 17.7 0.00 0.00 0.00 44 1012.0
20260503191027 13 267 8.0 19.3 0.00 0.00 0.00 44 1011.9
20260503190528 14 315 8.0 17.7 0.00 0.00 0.00 44 1011.9
20260503190036 14 336 6.4 17.7 0.00 0.00 0.00 43 1012.1
20260503185528 14 317 6.4 16.1 0.00 0.00 0.00 43 1012.2
20260503185027 14 346 6.4 24.1 0.00 0.00 0.00 43 1012.0
20260503184526 14 240 8.0 24.1 0.00 0.00 0.00 43 1011.9
20260503184023 14 273 6.4 17.7 0.00 0.00 0.00 46 1012.2
20260503183525 13 328 4.8 16.1 0.00 0.00 0.00 46 1012.4
20260503183022 13 37 8.0 20.9 0.00 0.00 0.00 45 1012.3
20260503182521 13 282 8.0 20.9 0.00 0.00 0.00 46 1012.3
20260503182020 13 203 6.4 22.5 0.00 0.00 0.00 46 1012.5
20260503181520 13 360 6.4 20.9 0.00 0.00 0.00 45 1012.4
20260503181020 13 250 4.8 20.9 0.00 0.00 0.00 47 1012.3
20260503180521 13 302 6.4 20.9 0.00 0.00 0.00 46 1012.3
20260503180019 12 324 6.4 20.9 0.00 0.00 0.00 45 1012.4
20260503175517 12 346 8.0 20.9 0.00 0.00 0.00 47 1012.5
20260503175016 11 338 6.4 20.9 0.00 0.00 0.00 49 1012.4
20260503174516 11 350 6.4 19.3 0.00 0.00 0.00 47 1012.4
20260503174016 12 311 8.0 19.3 0.00 0.00 0.00 46 1012.4
20260503173515 12 283 4.8 20.9 0.00 0.00 0.00 48 1012.6
20260503173016 12 334 8.0 20.9 0.00 0.00 0.00 47 1012.5
20260503172516 12 355 6.4 17.7 0.00 0.00 0.00 49 1012.7
20260503172014 12 300 8.0 20.9 0.00 0.00 0.00 48 1012.6
20260503171516 12 235 4.8 20.9 0.00 0.00 0.00 49 1012.8
20260503171014 11 242 6.4 16.1 0.00 0.00 0.00 48 1012.8
20260503170515 12 280 4.8 16.1 0.00 0.00 0.00 48 1012.8
20260503151001 8 75 6.4 16.1 0.00 0.00 0.00 58 1013.7
20260503150502 8 318 6.4 17.7 0.00 0.00 0.00 57 1013.7
20260503131048 7 321 4.8 14.5 0.00 0.00 0.00 66 1013.5
20260503130548 7 327 4.8 16.1 0.00 0.00 0.00 65 1013.6
20260503110536 4 68 3.2 14.5 0.00 0.00 0.00 75 1012.6
20260503081529 5 80 1.6 6.4 0.00 0.00 0.00 70 1011.4
20260503081017 5 78 1.6 6.4 0.00 0.00 0.00 70 1011.4
20260503080517 5 84 1.6 6.4 0.00 0.00 0.00 71 1011.3
20260503072514 5 349 1.6 6.4 0.00 0.00 0.00 70 1011.2
20260503072016 6 345 3.2 6.4 0.00 0.00 0.00 69 1011.3
20260503071513 6 344 1.6 6.4 0.00 0.00 0.00 69 1011.2
20260503071013 6 345 1.6 8.0 0.00 0.00 0.00 69 1011.1
20260503070511 6 344 1.6 9.7 0.00 0.00 0.00 70 1011.1
20260503055005 6 32 1.6 8.0 0.00 0.00 0.00 67 1011.2
20260503054503 6 104 1.6 8.0 0.00 0.00 0.00 67 1011.3
20260503054003 6 27 1.6 6.4 0.00 0.00 0.00 67 1011.3
20260503053502 6 26 1.6 4.8 0.00 0.00 0.00 66 1011.3
20260503053003 6 26 1.6 4.8 0.00 0.00 0.00 67 1011.4
20260503052559 6 27 1.6 9.7 0.00 0.00 0.00 66 1011.5
20260503052100 7 30 1.6 9.7 0.00 0.00 0.00 66 1011.5
20260503051559 7 307 1.6 6.4 0.00 0.00 0.00 66 1011.5
20260503051058 7 307 1.6 12.9 0.00 0.00 0.00 65 1011.5
20260503050558 7 293 3.2 8.0 0.00 0.00 0.00 65 1011.6
20260503050057 7 350 3.2 14.5 0.00 0.00 0.00 65 1011.6
20260503045558 7 73 1.6 14.5 0.00 0.00 0.00 65 1011.7
20260503045055 7 321 4.8 12.9 0.00 0.00 0.00 65 1011.8
20260503044557 7 248 3.2 9.7 0.00 0.00 0.00 65 1011.9
20260503044055 7 308 3.2 11.3 0.00 0.00 0.00 65 1011.9
20260503043553 7 290 3.2 12.9 0.00 0.00 0.00 64 1012.0
20260503043052 7 265 3.2 12.9 0.00 0.00 0.00 65 1012.0
20260503042551 7 345 3.2 9.7 0.00 0.00 0.00 64 1012.0
20260503042050 7 279 1.6 9.7 0.00 0.00 0.00 64 1012.1
20260503041549 7 288 1.6 8.0 0.00 0.00 0.00 64 1012.1
20260503041048 7 290 1.6 8.0 0.00 0.00 0.00 63 1012.2
20260503040548 7 279 1.6 11.3 0.00 0.00 0.00 63 1012.2
20260503040048 7 278 1.6 11.3 0.00 0.00 0.00 63 1012.2
20260503035546 7 188 1.6 6.4 0.00 0.00 0.00 63 1012.3
20260503035049 7 186 1.6 8.0 0.00 0.00 0.00 63 1012.2
20260503034546 7 182 1.6 8.0 0.00 0.00 0.00 62 1012.1
20260503034047 7 276 1.6 4.8 0.00 0.00 0.00 62 1012.1
20260503033545 7 276 1.6 4.8 0.00 0.00 0.00 62 1012.0
20260503033045 7 276 1.6 4.8 0.00 0.00 0.00 63 1012.1
20260503032545 8 281 1.6 6.4 0.00 0.00 0.00 62 1012.1
20260503032045 8 280 1.6 6.4 0.00 0.00 0.00 61 1012.0
20260503031546 8 280 3.2 6.4 0.00 0.00 0.00 61 1012.1
20260503031045 8 280 3.2 6.4 0.00 0.00 0.00 61 1012.1
20260503030544 8 280 1.6 6.4 0.00 0.00 0.00 61 1012.1
20260503030048 8 279 3.2 6.4 0.00 0.00 0.00 61 1012.2
20260503025544 8 277 3.2 9.7 0.00 0.00 0.00 61 1012.2
20260503025047 8 277 3.2 9.7 0.00 0.00 0.00 61 1012.2
20260503024544 8 275 3.2 9.7 0.00 0.00 0.00 61 1012.2
20260503024045 8 273 3.2 6.4 0.00 0.00 0.00 62 1012.2
20260503023544 8 273 3.2 6.4 0.00 0.00 0.00 62 1012.2
20260503023043 8 273 3.2 6.4 0.00 0.00 0.00 60 1012.2
20260503022543 8 272 1.6 6.4 0.00 0.00 0.00 60 1012.2
20260503022043 8 273 1.6 6.4 0.00 0.00 0.00 60 1012.1
20260503021543 8 273 3.2 6.4 0.00 0.00 0.00 59 1012.2
20260503021043 8 273 1.6 6.4 0.00 0.00 0.00 60 1012.2
20260503020543 8 273 1.6 6.4 0.00 0.00 0.00 59 1012.2
20260503020043 8 271 1.6 6.4 0.00 0.00 0.00 58 1012.2
20260503015542 8 271 1.6 6.4 0.00 0.00 0.00 59 1012.3
20260503015042 8 271 3.2 6.4 0.00 0.00 0.00 58 1012.2
20260503014542 9 269 1.6 4.8 0.00 0.00 0.00 58 1012.2
20260503014042 9 269 1.6 9.7 0.00 0.00 0.00 57 1012.3
20260503013542 9 268 1.6 6.4 0.00 0.00 0.00 58 1012.3
20260503013042 9 268 1.6 4.8 0.00 0.00 0.00 57 1012.3
20260503012542 9 268 1.6 4.8 0.00 0.00 0.00 57 1012.3
20260503012044 9 268 0.0 9.7 0.00 0.00 0.00 57 1012.3
20260503011542 9 268 3.2 9.7 0.00 0.00 0.00 57 1012.4
20260503011043 9 268 1.6 4.8 0.00 0.00 0.00 58 1012.3
20260503010541 9 268 1.6 4.8 0.00 0.00 0.00 57 1012.2
20260503010041 10 267 1.6 4.8 0.00 0.00 0.00 58 1012.0
20260503005541 10 267 0.0 4.8 0.00 0.00 0.00 58 1012.0
20260503005044 10 265 1.6 4.8 0.00 0.00 0.00 60 1012.0
20260503004541 10 265 1.6 4.8 0.00 0.00 0.00 58 1011.8
20260503004040 10 264 1.6 6.4 0.00 0.00 0.00 58 1011.8
20260503003542 10 265 1.6 6.4 0.00 0.00 0.00 58 1011.7
20260503003040 10 261 1.6 4.8 0.00 0.00 0.00 58 1011.6
20260503002539 10 261 0.0 4.8 0.00 0.00 0.00 57 1011.5